Darstellungsparameter: Aktuell verwendete Einstellungen:
Skalierung der Graphiken ... ?
xyx+y,   Skalierungsfaktor:      Skalierung: Modus: x, Faktor: 1
Darstellungszeitraum ... ?
Vom - - bis: - -   Zeitraum: 06.06.2011 - 06.06.2011
Min/Max/Avg-Anzeige ... ?
Zeige MMA aktuell
Zeige MMA Monat
Zeige MMA alles
Zeige --A aktuell
Zeige --A Monat
Zeige --A alles
Keine MMA-Anzeige
MMA:
Keine MMA-Graphiken
MMA-Basis: 06.06.2011 - 06.06.2011
Quicknavigation für Darstellung... ?
Tage:      1T, 2T, 3T, 5T -1T -2T -3T -5T +1T +2T +3T +5T
Wochen: 1W, 2W, 3W -1W -2W -3W +1W +2W +3W
Monate: 1M, 3M, 6M -1M -3M -6M +1M +3M +6M
Jahre:    1J, 3J, 5J, 10J -1J -3J -5J -10J +1J +3J +5J +10J
Nutze für die Darstellung ... ?
Originaldaten oder Mittelwerte auf ...
Stundenbasis Tagesbasis Wochenbasis
Monatsbasis Jahresbasis      Datenbasis: Original-Daten
Darstellen als:
Statistik (Auto) Statistik J:M      Darstellung:
Zur Graphik,    zurück zur Übersicht aller Sensoren.
 
Tabellarische Datenbersicht: ?
 
Sensor: Nr:Datum:Temp:Abs-Feuchte:Windchill:Wind:
Aussen-T/F 1 06-06-2011 00:06:05 15.3 C 11.62 g/m*3 15.3 C 0 km/h
2 06-06-2011 00:18:05 15.3 C 11.75 g/m*3 15.3 C 0 km/h
3 06-06-2011 00:30:06 14.9 C 11.47 g/m*3 14.9 C 0 km/h
4 06-06-2011 00:42:06 15 C 11.41 g/m*3 15 C 0 km/h
5 06-06-2011 00:54:06 15 C 11.54 g/m*3 15 C 0 km/h
6 06-06-2011 01:06:06 15.1 C 11.61 g/m*3 15.1 C 0 km/h
7 06-06-2011 01:18:06 15.1 C 11.61 g/m*3 15.1 C 0 km/h
8 06-06-2011 01:30:06 14.9 C 11.6 g/m*3 14.9 C 0 km/h
9 06-06-2011 01:42:06 15 C 11.54 g/m*3 15 C 0 km/h
10 06-06-2011 01:54:06 15 C 11.54 g/m*3 15 C 0 km/h
11 06-06-2011 02:06:06 15.1 C 11.61 g/m*3 15.1 C 0 km/h
12 06-06-2011 02:18:06 15.1 C 11.61 g/m*3 15.1 C 0 km/h
13 06-06-2011 02:30:06 15.1 C 11.61 g/m*3 15.1 C 0 km/h
14 06-06-2011 02:42:06 15 C 11.54 g/m*3 15 C 0 km/h
15 06-06-2011 02:54:06 15 C 11.54 g/m*3 15 C 0 km/h
16 06-06-2011 03:06:06 15.1 C 11.61 g/m*3 15.1 C 0 km/h
17 06-06-2011 03:18:06 14.9 C 11.6 g/m*3 14.9 C 0 km/h
18 06-06-2011 03:30:06 15 C 11.54 g/m*3 15 C 0 km/h
19 06-06-2011 03:42:06 14.5 C 11.32 g/m*3 14.5 C 0 km/h
20 06-06-2011 03:54:06 14.4 C 11.25 g/m*3 14.4 C 0 km/h
21 06-06-2011 04:06:06 14.4 C 11.25 g/m*3 14.4 C 0 km/h
22 06-06-2011 04:18:06 13.8 C 10.84 g/m*3 13.8 C 0 km/h
23 06-06-2011 04:30:06 14 C 10.98 g/m*3 14 C 0 km/h
24 06-06-2011 04:42:07 14 C 10.98 g/m*3 14 C 0 km/h
25 06-06-2011 04:54:07 13.7 C 10.78 g/m*3 13.7 C 0 km/h
Sensor: Nr:Datum:Temp:Abs-Feuchte:Windchill:Wind:
Aussen-T/F 26 06-06-2011 05:06:07 14 C 10.98 g/m*3 14 C 0 km/h
27 06-06-2011 05:18:07 13.6 C 10.71 g/m*3 13.6 C 0 km/h
28 06-06-2011 05:30:07 13.6 C 10.71 g/m*3 13.6 C 0 km/h
29 06-06-2011 05:42:07 13.5 C 10.64 g/m*3 13.5 C 0 km/h
30 06-06-2011 05:54:07 13.7 C 10.78 g/m*3 13.7 C 0 km/h
31 06-06-2011 06:06:07 13.7 C 10.78 g/m*3 13.7 C 0 km/h
32 06-06-2011 06:18:07 14 C 10.98 g/m*3 14 C 0 km/h
33 06-06-2011 06:30:07 14.2 C 11.11 g/m*3 14.2 C 0 km/h
34 06-06-2011 06:42:07 14.4 C 11.25 g/m*3 14.4 C 0 km/h
35 06-06-2011 06:54:07 14.8 C 11.53 g/m*3 14.8 C 0 km/h
36 06-06-2011 07:06:07 14.9 C 11.6 g/m*3 14.9 C 0 km/h
37 06-06-2011 07:18:04 15.2 C 11.68 g/m*3 15.2 C 0 km/h
38 06-06-2011 07:30:04 15.4 C 11.82 g/m*3 15.4 C 0 km/h
39 06-06-2011 07:42:04 15.5 C 11.9 g/m*3 15.5 C 0 km/h
40 06-06-2011 07:54:03 15.7 C 12.04 g/m*3 15.7 C 0 km/h
41 06-06-2011 08:06:02 16.1 C 12.34 g/m*3 16.1 C 0 km/h
42 06-06-2011 08:18:02 16.8 C 12.87 g/m*3 16.8 C 0 km/h
43 06-06-2011 08:30:02 17 C 12.88 g/m*3 17 C 0 km/h
44 06-06-2011 08:42:02 18.3 C 13.76 g/m*3 18.3 C 0 km/h
45 06-06-2011 08:54:02 18.1 C 13.44 g/m*3 18.1 C 0 km/h
46 06-06-2011 09:06:01 18.3 C 13.29 g/m*3 18.3 C 0 km/h
47 06-06-2011 09:18:02 18.1 C 12.82 g/m*3 18.1 C 0 km/h
48 06-06-2011 09:30:02 18.1 C 12.98 g/m*3 18.1 C 0 km/h
49 06-06-2011 09:42:02 18.3 C 12.98 g/m*3 18.3 C 0 km/h
50 06-06-2011 09:54:02 18.8 C 13.37 g/m*3 18.8 C 0 km/h
Sensor: Nr:Datum:Temp:Abs-Feuchte:Windchill:Wind:
Aussen-T/F 51 06-06-2011 10:06:02 19 C 13.53 g/m*3 19 C 0 km/h
52 06-06-2011 10:18:02 19.6 C 13.34 g/m*3 19.6 C 0 km/h
53 06-06-2011 10:30:02 20.7 C 13.14 g/m*3 20.7 C 0 km/h
54 06-06-2011 10:42:02 21.3 C 11.93 g/m*3 21.3 C 0 km/h
55 06-06-2011 10:54:02 21.4 C 12 g/m*3 21.4 C 0 km/h
56 06-06-2011 11:06:02 21.9 C 11.77 g/m*3 21.9 C 0 km/h
57 06-06-2011 11:18:02 22.9 C 10.83 g/m*3 22.9 C 0 km/h
58 06-06-2011 11:30:02 21.5 C 10.75 g/m*3 21.5 C 0 km/h
59 06-06-2011 11:42:02 22.3 C 10.86 g/m*3 22.3 C 0 km/h
60 06-06-2011 11:54:02 22.9 C 11.24 g/m*3 22.9 C 0 km/h
61 06-06-2011 12:06:02 23 C 11.1 g/m*3 23 C 0 km/h
62 06-06-2011 12:18:02 22.9 C 10.83 g/m*3 22.9 C 0 km/h
63 06-06-2011 12:30:02 23.5 C 10.79 g/m*3 23.5 C 0 km/h
64 06-06-2011 12:42:02 23.9 C 11.03 g/m*3 23.9 C 0 km/h
65 06-06-2011 12:54:02 24.2 C 10.78 g/m*3 24.2 C 0 km/h
66 06-06-2011 13:06:01 24.6 C 11.25 g/m*3 24.6 C 0 km/h
67 06-06-2011 13:18:02 24.6 C 10.35 g/m*3 24.6 C 0 km/h
68 06-06-2011 13:30:02 29.1 C 10.11 g/m*3 29.1 C 0 km/h
69 06-06-2011 13:42:01 27.8 C 9.95 g/m*3 27.8 C 0 km/h
70 06-06-2011 13:54:02 27 C 9.01 g/m*3 27 C 0 km/h
71 06-06-2011 14:06:01 28.3 C 9.68 g/m*3 28.3 C 0 km/h
72 06-06-2011 14:18:01 27.3 C 9.42 g/m*3 27.3 C 0 km/h
73 06-06-2011 14:30:01 26.7 C 9.37 g/m*3 26.7 C 0 km/h
74 06-06-2011 14:42:02 26.4 C 8.96 g/m*3 26.4 C 0 km/h
75 06-06-2011 14:54:02 26.5 C 10.01 g/m*3 26.5 C 0 km/h
Sensor: Nr:Datum:Temp:Abs-Feuchte:Windchill:Wind:
Aussen-T/F 76 06-06-2011 15:06:02 26.2 C 8.86 g/m*3 26.2 C 0 km/h
77 06-06-2011 15:18:01 25.8 C 9.87 g/m*3 25.8 C 0 km/h
78 06-06-2011 15:30:01 25.5 C 11.6 g/m*3 25.5 C 0 km/h
79 06-06-2011 15:42:02 27.2 C 10.15 g/m*3 27.2 C 0 km/h
80 06-06-2011 15:54:02 25.1 C 9.26 g/m*3 25.1 C 0 km/h
81 06-06-2011 16:06:02 24.8 C 10.24 g/m*3 24.8 C 0 km/h
82 06-06-2011 16:18:01 25.1 C 10.19 g/m*3 25.1 C 0 km/h
83 06-06-2011 16:30:01 26.1 C 10.28 g/m*3 26.1 C 0 km/h
84 06-06-2011 16:42:02 25.8 C 10.11 g/m*3 25.8 C 0 km/h
85 06-06-2011 16:54:02 23 C 8.63 g/m*3 23 C 0 km/h
86 06-06-2011 17:06:02 21.1 C 8.84 g/m*3 21.1 C 0 km/h
87 06-06-2011 17:18:01 18 C 9.83 g/m*3 18 C 0 km/h
88 06-06-2011 17:30:01 16.9 C 10.79 g/m*3 16.9 C 0 km/h
89 06-06-2011 17:42:02 16.4 C 10.89 g/m*3 16.4 C 0 km/h
90 06-06-2011 17:54:01 16.3 C 11.38 g/m*3 16.3 C 0 km/h
91 06-06-2011 18:06:02 16.4 C 11.72 g/m*3 16.4 C 0 km/h
92 06-06-2011 18:18:02 17 C 12.01 g/m*3 17 C 0 km/h
93 06-06-2011 18:30:02 16.8 C 12.01 g/m*3 16.8 C 0 km/h
94 06-06-2011 18:42:01 17.2 C 12.3 g/m*3 17.2 C 0 km/h
95 06-06-2011 18:54:02 17.2 C 12.3 g/m*3 17.2 C 0 km/h
96 06-06-2011 19:06:01 17.2 C 12.3 g/m*3 17.2 C 0 km/h
97 06-06-2011 19:18:02 17.5 C 12.67 g/m*3 17.5 C 0 km/h
98 06-06-2011 19:30:03 17.8 C 12.9 g/m*3 17.8 C 0 km/h
99 06-06-2011 19:42:01 18.1 C 12.82 g/m*3 18.1 C 0 km/h
100 06-06-2011 19:54:02 18.1 C 12.82 g/m*3 18.1 C 0 km/h
Sensor: Nr:Datum:Temp:Abs-Feuchte:Windchill:Wind:
Aussen-T/F 101 06-06-2011 20:06:02 18.1 C 12.67 g/m*3 18.1 C 0 km/h
102 06-06-2011 20:18:02 18.1 C 12.67 g/m*3 18.1 C 0 km/h
103 06-06-2011 20:30:02 18.1 C 12.67 g/m*3 18.1 C 0 km/h
104 06-06-2011 20:42:49 17.5 C 12.52 g/m*3 17.5 C 0 km/h
105 06-06-2011 20:54:49 17.2 C 12.45 g/m*3 17.2 C 0 km/h
106 06-06-2011 21:06:49 16.8 C 12.15 g/m*3 16.8 C 0 km/h
107 06-06-2011 21:18:03 16.5 C 12.08 g/m*3 16.5 C 0 km/h
108 06-06-2011 21:30:03 16.3 C 11.93 g/m*3 16.3 C 0 km/h
109 06-06-2011 21:42:02 16.2 C 12 g/m*3 16.2 C 0 km/h
110 06-06-2011 21:55:02 15.9 C 11.78 g/m*3 15.9 C 0 km/h
111 06-06-2011 22:07:02 15.9 C 11.92 g/m*3 15.9 C 0 km/h
112 06-06-2011 22:19:02 15.6 C 11.7 g/m*3 15.6 C 0 km/h
113 06-06-2011 22:31:02 15.3 C 11.49 g/m*3 15.3 C 0 km/h
114 06-06-2011 22:43:02 15.8 C 11.98 g/m*3 15.8 C 0 km/h
115 06-06-2011 22:55:02 15.6 C 11.84 g/m*3 15.6 C 0 km/h
116 06-06-2011 23:07:03 15.5 C 11.76 g/m*3 15.5 C 0 km/h
117 06-06-2011 23:19:03 15.7 C 11.91 g/m*3 15.7 C 0 km/h
118 06-06-2011 23:31:03 15.6 C 11.84 g/m*3 15.6 C 0 km/h
119 06-06-2011 23:43:03 15.6 C 11.84 g/m*3 15.6 C 0 km/h
120 06-06-2011 23:55:03 15.4 C 11.69 g/m*3 15.4 C 0 km/h

Legende:
   Min
   Max


Maximal/Minimal-Werte vom 06.06.2011 - 06.06.2011

Sensor Min Max Avg
Temp
(Aussen-T/F)
13.5 °C
06-06-2011  05:42:07
29.1 °C
06-06-2011  13:30:02
18.39 °C
Abs-Feuchte
(Aussen-T/F)
8.63 g/m*3
06-06-2011  16:54:02
13.76 g/m*3
06-06-2011  08:42:02
11.34 g/m*3
Windchill
(Aussen-T/F)
13.5 C
06-06-2011  05:42:07
29.1 C
06-06-2011  13:30:02
18.23 C

Die Daten stammen von einer Davis Vantage Pro 2 Wetter-Station und werden unter Linux mit der Software wview2wettercgi und aufbereitet. Alle Angaben erfolgen ohne Gewähr für ihre Vollständigkeit oder Richtigkeit.
Kontakt: Rainer Krienke krienke@uni-koblenz.de . Meine Webseiten an der Uni Koblenz oder privat.
Version: $Revision: 0.78 $